| time (UTC) | temp F | wind direction | speed knots | gust knots | rain 1hr in | rain 24hr in | rain mn in | humidity % | barometer mb |
| 20260507030026 | 50 | 240 | 0.9 | 4.3 | 0.02 | 0.77 | 0.77 | 93 | 1005.1 |
| 20260507024530 | 51 | 221 | 0.9 | 1.7 | 0.01 | 0.76 | 0.76 | 93 | 1004.9 |
| 20260507023017 | 52 | 201 | 1.7 | 2.6 | 0.01 | 0.76 | 0.76 | 94 | 1004.9 |
| 20260507021529 | 53 | 225 | 0.9 | 1.7 | 0.01 | 0.76 | 0.76 | 93 | 1005.0 |
| 20260507020018 | 54 | 243 | 0.0 | 1.7 | 0.00 | 0.75 | 0.75 | 94 | 1004.7 |
| 20260507014510 | 54 | 245 | 0.0 | 1.7 | 0.01 | 0.75 | 0.75 | 94 | 1004.6 |
| 20260507013011 | 55 | 228 | 0.0 | 1.7 | 0.01 | 0.75 | 0.75 | 94 | 1004.5 |
| 20260507011514 | 55 | 141 | 0.0 | 4.3 | 0.01 | 0.75 | 0.75 | 94 | 1004.4 |
| 20260507010031 | 56 | 214 | 1.7 | 3.5 | 0.01 | 0.75 | 0.75 | 94 | 1004.4 |
| 20260507004524 | 57 | 85 | 0.9 | 0.9 | 0.01 | 0.74 | 0.74 | 95 | 1004.3 |
| 20260507003011 | 57 | 188 | 0.0 | 1.7 | 0.02 | 0.74 | 0.74 | 95 | 1004.0 |
| 20260507001516 | 57 | 212 | 0.9 | 1.7 | 0.02 | 0.74 | 0.74 | 95 | 1003.9 |
| 20260507000022 | 58 | 155 | 0.9 | 1.7 | 0.03 | 0.74 | 0.74 | 95 | 1003.7 |
| 20260506234512 | 58 | 262 | 0.0 | 1.7 | 0.02 | 0.73 | 0.73 | 95 | 1003.7 |
| 20260506233026 | 58 | 231 | 0.9 | 6.1 | 0.02 | 0.72 | 0.72 | 95 | 1003.4 |
| 20260506231518 | 58 | 347 | 0.9 | 5.2 | 0.03 | 0.72 | 0.72 | 95 | 1003.5 |
| 20260506230019 | 59 | 245 | 0.9 | 4.3 | 0.03 | 0.71 | 0.71 | 94 | 1003.4 |
| 20260506224522 | 59 | 262 | 2.6 | 8.7 | 0.06 | 0.71 | 0.71 | 94 | 1003.2 |
| 20260506223020 | 59 | 230 | 1.7 | 7.0 | 0.10 | 0.71 | 0.70 | 94 | 1003.4 |
| 20260506221516 | 59 | 238 | 1.7 | 7.0 | 0.16 | 0.70 | 0.69 | 94 | 1003.6 |
| 20260506220018 | 59 | 137 | 0.9 | 9.6 | 0.22 | 0.72 | 0.68 | 94 | 1003.6 |
| 20260506214522 | 59 | 105 | 0.9 | 3.5 | 0.22 | 0.70 | 0.65 | 94 | 1003.7 |
| 20260506213023 | 59 | 352 | 0.9 | 5.2 | 0.22 | 0.65 | 0.60 | 93 | 1003.9 |
| 20260506211538 | 59 | 281 | 1.7 | 5.2 | 0.15 | 0.58 | 0.52 | 94 | 1003.9 |
| 20260506210033 | 59 | 292 | 1.7 | 7.8 | 0.09 | 0.51 | 0.46 | 93 | 1004.1 |
| 20260506204522 | 59 | 262 | 0.0 | 2.6 | 0.09 | 0.48 | 0.43 | 93 | 1004.3 |
| 20260506203017 | 60 | 103 | 0.0 | 2.6 | 0.07 | 0.43 | 0.38 | 93 | 1004.4 |
| 20260506201527 | 59 | 285 | 2.6 | 5.2 | 0.09 | 0.43 | 0.38 | 92 | 1004.8 |
| 20260506200031 | 59 | 228 | 2.6 | 5.2 | 0.10 | 0.42 | 0.37 | 93 | 1004.7 |
| 20260506194524 | 59 | 29 | 0.9 | 7.8 | 0.09 | 0.39 | 0.34 | 92 | 1004.9 |
| 20260506193030 | 59 | 255 | 1.7 | 7.0 | 0.07 | 0.36 | 0.31 | 92 | 1004.9 |
| 20260506191519 | 60 | 228 | 0.9 | 2.6 | 0.06 | 0.34 | 0.29 | 93 | 1005.1 |
| 20260506190028 | 60 | 264 | 0.9 | 3.5 | 0.06 | 0.32 | 0.27 | 92 | 1005.3 |
| 20260506184531 | 60 | 279 | 0.0 | 3.5 | 0.06 | 0.30 | 0.25 | 92 | 1005.3 |
| 20260506183027 | 60 | 204 | 1.7 | 3.5 | 0.09 | 0.29 | 0.24 | 92 | 1005.5 |
| 20260506181535 | 59 | 230 | 0.0 | 0.9 | 0.16 | 0.28 | 0.23 | 93 | 1006.0 |
| 20260506180025 | 59 | 231 | 0.0 | 0.9 | 0.21 | 0.26 | 0.21 | 93 | 1006.1 |
| 20260506174523 | 59 | 237 | 0.0 | 1.7 | 0.19 | 0.24 | 0.19 | 92 | 1006.6 |
| 20260506173015 | 59 | 106 | 0.0 | 0.9 | 0.15 | 0.20 | 0.15 | 91 | 1006.4 |
| 20260506171517 | 61 | 84 | 0.0 | 0.9 | 0.07 | 0.12 | 0.07 | 89 | 1006.5 |
| 20260506170016 | 62 | 113 | 0.0 | 0.9 | 0.00 | 0.05 | 0.00 | 84 | 1006.4 |
| 20260506164510 | 63 | 84 | 0.0 | 2.6 | 0.00 | 0.05 | 0.00 | 77 | 1006.4 |
| 20260506163014 | 63 | 182 | 0.0 | 1.7 | 0.00 | 0.05 | 0.00 | 76 | 1006.7 |
| 20260506161517 | 62 | 21 | 0.9 | 2.6 | 0.00 | 0.05 | 0.00 | 79 | 1006.9 |
| 20260506160020 | 62 | 283 | 0.0 | 0.9 | 0.00 | 0.05 | 0.00 | 79 | 1007.6 |
| 20260506154522 | 63 | 289 | 0.0 | 1.7 | 0.00 | 0.05 | 0.00 | 78 | 1007.7 |
| 20260506153006 | 62 | 279 | 0.9 | 1.7 | 0.00 | 0.05 | 0.00 | 76 | 1008.0 |
| 20260506151514 | 62 | 242 | 0.9 | 2.6 | 0.00 | 0.05 | 0.00 | 76 | 1007.9 |
| 20260506150016 | 62 | 300 | 0.9 | 2.6 | 0.00 | 0.05 | 0.00 | 77 | 1007.9 |
| 20260506144522 | 62 | 240 | 0.9 | 2.6 | 0.00 | 0.05 | 0.00 | 76 | 1008.0 |
| 20260506143028 | 63 | 250 | 0.9 | 5.2 | 0.00 | 0.05 | 0.00 | 75 | 1007.8 |
| 20260506141509 | 62 | 136 | 0.9 | 4.3 | 0.00 | 0.05 | 0.00 | 75 | 1007.8 |
| 20260506140020 | 62 | 262 | 1.7 | 4.3 | 0.00 | 0.05 | 0.00 | 74 | 1007.8 |
| 20260506134516 | 62 | 288 | 0.9 | 3.5 | 0.00 | 0.05 | 0.00 | 75 | 1008.0 |
| 20260506133015 | 62 | 227 | 0.0 | 2.6 | 0.00 | 0.05 | 0.00 | 77 | 1008.1 |
| 20260506131528 | 61 | 272 | 0.0 | 2.6 | 0.00 | 0.05 | 0.00 | 77 | 1008.1 |
| 20260506130012 | 61 | 278 | 0.0 | 1.7 | 0.00 | 0.05 | 0.00 | 78 | 1008.1 |
| 20260506124518 | 61 | 246 | 0.0 | 1.7 | 0.00 | 0.05 | 0.00 | 79 | 1008.1 |
| 20260506123021 | 60 | 283 | 0.9 | 2.6 | 0.00 | 0.05 | 0.00 | 77 | 1008.2 |
| 20260506121520 | 60 | 268 | 0.9 | 1.7 | 0.00 | 0.05 | 0.00 | 78 | 1008.2 |
| 20260506120018 | 59 | 294 | 0.0 | 3.5 | 0.00 | 0.05 | 0.00 | 85 | 1008.5 |
| 20260506114529 | 57 | 42 | 0.0 | 1.7 | 0.00 | 0.05 | 0.00 | 88 | 1008.4 |
| 20260506113019 | 57 | 32 | 0.0 | 1.7 | 0.00 | 0.05 | 0.00 | 88 | 1008.6 |
| 20260506111523 | 57 | 311 | 0.9 | 2.6 | 0.00 | 0.05 | 0.00 | 85 | 1008.4 |
| 20260506110026 | 56 | 198 | 0.9 | 3.5 | 0.00 | 0.05 | 0.00 | 87 | 1008.6 |
| 20260506104541 | 54 | 200 | 0.0 | 1.7 | 0.00 | 0.05 | 0.00 | 91 | 1008.8 |
| 20260506103020 | 54 | 165 | 0.0 | 0.9 | 0.00 | 0.05 | 0.00 | 91 | 1008.7 |
| 20260506101516 | 54 | 161 | 0.0 | 0.0 | 0.00 | 0.05 | 0.00 | 90 | 1008.6 |
| 20260506100025 | 54 | 161 | 0.0 | 0.0 | 0.00 | 0.05 | 0.00 | 89 | 1008.4 |
| 20260506094533 | 55 | 161 | 0.0 | 0.0 | 0.00 | 0.05 | 0.00 | 88 | 1008.2 |
| 20260506093024 | 56 | 161 | 0.0 | 0.9 | 0.00 | 0.05 | 0.00 | 87 | 1008.1 |
| 20260506091524 | 56 | 161 | 0.0 | 0.9 | 0.00 | 0.05 | 0.00 | 87 | 1008.2 |
| 20260506090021 | 56 | 162 | 0.0 | 0.9 | 0.00 | 0.05 | 0.00 | 87 | 1008.4 |
| 20260506084518 | 57 | 162 | 0.0 | 1.7 | 0.00 | 0.05 | 0.00 | 85 | 1008.3 |
| 20260506083037 | 57 | 161 | 0.0 | 1.7 | 0.00 | 0.05 | 0.00 | 83 | 1008.2 |
| 20260506081527 | 58 | 136 | 0.0 | 2.6 | 0.00 | 0.05 | 0.00 | 82 | 1008.3 |
| 20260506073022 | 59 | 188 | 0.9 | 4.3 | 0.00 | 0.05 | 0.00 | 80 | 1008.1 |
| 20260506071525 | 59 | 149 | 0.9 | 4.3 | 0.00 | 0.05 | 0.00 | 82 | 1007.7 |
| 20260506061528 | 60 | 245 | 0.9 | 1.7 | 0.00 | 0.05 | 0.00 | 82 | 1007.6 |
| 20260506043011 | 58 | 208 | 0.9 | 1.7 | 0.00 | 0.05 | 0.00 | 88 | 1007.5 |
| 20260506041523 | 58 | 153 | 0.0 | 0.9 | 0.00 | 0.05 | 0.00 | 87 | 1007.7 |
| 20260506040040 | 59 | 141 | 0.0 | 1.7 | 0.00 | 0.05 | 0.00 | 85 | 1007.8 |
| 20260506034512 | 59 | 135 | 0.0 | 0.9 | 0.00 | 0.05 | 0.05 | 83 | 1007.7 |
| 20260506033015 | 58 | 135 | 0.9 | 0.9 | 0.00 | 0.05 | 0.05 | 85 | 1008.1 |
| 20260506031514 | 58 | 101 | 0.0 | 0.9 | 0.00 | 0.05 | 0.05 | 86 | 1008.0 |